This is the latest recevied weather packets stored in our database for station/object K4DNM. If no packets are shown the sender has not sent any weather packets the latest 10 day(s).
| Time | Temp. | Humidity | Pressure | Rain* | Wind** | Luminosity | Snow |
|---|---|---|---|---|---|---|---|
| 1787790848 | 25.56° C | 77% | 1015.2 hPa | 0 mm | - | 0 W/m² | - |
| 1787790485 | 25.56° C | 74% | 1015.1 hPa | 0 mm | - | 0 W/m² | - |
| 1787790186 | 26.11° C | 73% | 1015 hPa | 0 mm | - | 0 W/m² | - |
| 1787789884 | 26.11° C | 72% | 1015 hPa | 0 mm | - | 0 W/m² | - |
| 1787789586 | 26.11° C | 71% | 1014.9 hPa | 0 mm | - | 0 W/m² | - |
| 1787789280 | 26.67° C | 69% | 1014.9 hPa | 0 mm | - | 0 W/m² | - |
| 1787788979 | 26.67° C | 68% | 1014.8 hPa | 0 mm | - | 0 W/m² | - |
| 1787788677 | 26.67° C | 68% | 1014.7 hPa | 0 mm | - | 0 W/m² | - |
| 1787788438 | 26.67° C | 68% | 1014.7 hPa | 0 mm | - | 0 W/m² | - |
| 1787788075 | 26.67° C | 68% | 1014.6 hPa | 0 mm | - | 2 W/m² | - |
| 1787787773 | 27.22° C | 69% | 1014.6 hPa | 0 mm | - | 4 W/m² | - |
| 1787787471 | 27.22° C | 67% | 1014.5 hPa | 0 mm | - | 6 W/m² | - |
| 1787787230 | 27.22° C | 66% | 1014.5 hPa | 0 mm | - | 10 W/m² | - |
| 1787786930 | 27.22° C | 67% | 1014.5 hPa | 0 mm | - | 12 W/m² | - |
| 1787786568 | 27.78° C | 66% | 1014.5 hPa | 0 mm | - | 16 W/m² | - |
| 1787786267 | 27.78° C | 67% | 1014.6 hPa | 0 mm | - | 19 W/m² | - |
| 1787785966 | 27.78° C | 67% | 1014.7 hPa | 0 mm | - | 21 W/m² | - |
| 1787785663 | 27.78° C | 66% | 1014.7 hPa | 0 mm | - | 25 W/m² | - |
| 1787785361 | 28.33° C | 64% | 1014.8 hPa | 0 mm | - | 26 W/m² | - |
| 1787785117 | 28.33° C | 61% | 1014.7 hPa | 0 mm | - | 28 W/m² | - |
| 1787784754 | 28.89° C | 61% | 1014.8 hPa | 0 mm | - | 38 W/m² | - |
| 1787784449 | 28.89° C | 59% | 1014.7 hPa | 0 mm | - | 47 W/m² | - |
| 1787784148 | 28.89° C | 58% | 1014.7 hPa | 0 mm | - | 52 W/m² | - |
| 1787783907 | 28.89° C | 57% | 1014.8 hPa | 0 mm | - | 58 W/m² | - |
| 1787783547 | 28.89° C | 60% | 1014.8 hPa | 0 mm | - | 59 W/m² | - |
* Rain latest hour (hover to see other rain measurements)
** Current wind speed in m/s (hover to see current wind gust speed)